Change the Weather History Date:

Tuesday, May 20, 2014

  Actual Average Record
Temperature  
Mean Temperature 75 °F 62 °F  
Max Temperature 85 °F 73 °F 89 °F (1972)
Min Temperature 65 °F 51 °F 37 °F (2002)
Degree Days  
Heating Degree Days 0 5  
Month to date heating degree days 167 145  
Since 1 July heating degree days 7546 6449  
Cooling Degree Days 10 2  
Month to date cooling degree days 39 26  
Year to date cooling degree days 45 32  
Growing Degree Days 24 (Base 50)    
Moisture  
Dew Point 61 °F    
Average Humidity 66    
Maximum Humidity 84    
Minimum Humidity 47    
Precipitation  
Precipitation 0.00 in 0.14 in 2.62 in (2001)
Month to date precipitation 2.44 2.63  
Year to date precipitation 10.33 11.19  
Snow  
Snow 0.00 in - - ()
Month to date snowfall T  
Since 1 July snowfall 50.2  
Snow Depth 0.00 in    
Sea Level Pressure  
Sea Level Pressure 29.82 in    
Wind  
Wind Speed 9 mph (SSW)    
Max Wind Speed 25 mph    
Max Gust Speed 31 mph    
Visibility 10 miles    
Events      
T = Trace of Precipitation, MM = Missing Value Source: NWS Daily Summary

Daily Weather History Graph

Daily Weather History Graph

Search for Another Location

Airport or City:

Trip Planner

Search our weather history database for the weather conditions in past years. The results will help you decide how hot, cold, wet, or windy it might be!

Date:

Astronomy

May. 20, 2014 Rise Set
Actual Time 5:38 AM CDT 8:19 PM CDT
Civil Twilight 5:06 AM CDT 8:52 PM CDT
Nautical Twilight 4:25 AM CDT 9:32 PM CDT
Astronomical Twilight 3:39 AM CDT 10:19 PM CDT
Moon 12:48 AM CDT (5/20) 11:47 AM CDT (5/20)
Length of Visible Light 15h 46m
Length of Day
14h 41m
Waning Gibbous, 60% of the Moon is Illuminated
May 20
Waning Gibbous
May 21
Last Quarter
May 28
New
Jun 5
First Quarter
Jun 12
Full

Hourly Weather History & Observations

Time (CDT) Temp. Heat Index Dew Point Humidity Pressure Visibility Wind Dir Wind Speed Gust Speed Precip Events Conditions
12:52 AM 69.1 °F - 59.0 °F 70% 29.83 in 10.0 mi South 20.7 mph - N/A   Overcast
1:52 AM 68.0 °F - 59.0 °F 73% 29.82 in 10.0 mi South 19.6 mph 29.9 mph N/A   Overcast
2:52 AM 68.0 °F - 57.9 °F 70% 29.81 in 10.0 mi South 20.7 mph 26.5 mph N/A   Clear
4:52 AM 66.0 °F - 57.9 °F 75% 29.83 in 10.0 mi South 15.0 mph - N/A   Clear
5:52 AM 66.0 °F - 57.9 °F 75% 29.84 in 10.0 mi South 12.7 mph - N/A   Clear
7:52 AM 68.0 °F - 57.9 °F 70% 29.85 in 10.0 mi SSW 10.4 mph - N/A   Clear
8:52 AM 72.0 °F - 59.0 °F 64% 29.85 in 10.0 mi SSW 13.8 mph - N/A   Clear
9:52 AM 75.0 °F - 60.1 °F 60% 29.86 in 10.0 mi WSW 15.0 mph - N/A   Clear
10:52 AM 77.0 °F - 60.1 °F 56% 29.85 in 10.0 mi SW 10.4 mph - N/A   Clear
11:52 AM 80.1 °F 81.1 °F 61.0 °F 52% 29.84 in 10.0 mi WSW 9.2 mph - N/A   Clear
12:52 PM 82.0 °F 83.0 °F 62.1 °F 51% 29.83 in 10.0 mi Variable 6.9 mph - N/A   Clear
1:52 PM 82.9 °F 84.0 °F 63.0 °F 51% 29.82 in 10.0 mi Variable 5.8 mph - N/A   Clear
2:52 PM 82.9 °F 83.3 °F 61.0 °F 47% 29.82 in 9.0 mi Calm Calm - N/A   Mostly Cloudy
4:52 PM 82.9 °F 84.0 °F 63.0 °F 51% 29.81 in 10.0 mi South 6.9 mph - N/A   Mostly Cloudy
5:52 PM 82.9 °F 83.7 °F 62.1 °F 49% 29.81 in 10.0 mi SSW 9.2 mph - N/A   Mostly Cloudy
6:52 PM 82.0 °F 83.0 °F 62.1 °F 51% 29.79 in 10.0 mi SSW 10.4 mph - N/A   Overcast
7:52 PM 79.0 °F - 63.0 °F 58% 29.79 in 8.0 mi SW 6.9 mph - N/A   Mostly Cloudy
8:52 PM 75.9 °F - 63.0 °F 64% 29.81 in 8.0 mi WSW 3.5 mph - N/A   Scattered Clouds
9:52 PM 75.0 °F - 63.0 °F 66% 29.82 in 10.0 mi ENE 4.6 mph - N/A   Scattered Clouds
10:52 PM 72.0 °F - 64.0 °F 76% 29.82 in 10.0 mi NE 4.6 mph - N/A   Clear
11:52 PM 70.0 °F - 64.0 °F 81% 29.82 in 10.0 mi ESE 3.5 mph - N/A   Clear